Weather reports worldwide

Advertisment
Riga, Latvia (26422): temperature & dewpoint: 08.12.2017 20:00:00 - 14.12.2017 20:00:00 (EET)Riga, Latvia (26422): wind speed: 08.12.2017 20:00:00 - 14.12.2017 20:00:00 (EET)Riga, Latvia (26422): wind direction: 08.12.2017 20:00:00 - 14.12.2017 20:00:00 (EET)Riga, Latvia (26422): reduced air pressure: 08.12.2017 20:00:00 - 14.12.2017 20:00:00 (EET)Riga, Latvia (26422): visibility: 08.12.2017 20:00:00 - 14.12.2017 20:00:00 (EET)
Date & Time tt [°C] td [°C] ff [km/h] ff [kn] dd ppp [hPa] vv [km]
14.12.2017 20:00:00 0,9 0,3 18 10 SE 991,5 4,0
14.12.2017 19:00:00 - - - - - - -
14.12.2017 18:00:00 - - - - - - -
14.12.2017 17:00:00 0,5 -0,7 22 12 SE 992,7 4,0
14.12.2017 16:00:00 - - - - - - -
14.12.2017 15:00:00 - - - - - - -
14.12.2017 14:00:00 1,2 -3,5 22 12 ESE 994,1 10
14.12.2017 13:00:00 - - - - - - -
14.12.2017 12:00:00 - - - - - - -
14.12.2017 11:00:00 0,0 -3,6 22 12 SE 997,7 10
14.12.2017 10:00:00 - - - - - - -
14.12.2017 09:00:00 - - - - - - -
14.12.2017 08:00:00 -0,4 -2,7 22 12 SE 1000,4 10
14.12.2017 07:00:00 - - - - - - -
14.12.2017 06:00:00 - - - - - - -
14.12.2017 05:00:00 -0,3 -2,4 18 10 SE 1002,5 10
14.12.2017 04:00:00 - - - - - - -
14.12.2017 03:00:00 - - - - - - -
14.12.2017 02:00:00 0,3 -2,0 14 8 SSE 1004,5 10
14.12.2017 01:00:00 - - - - - - -
14.12.2017 00:00:00 - - - - - - -
13.12.2017 23:00:00 0,8 -2,3 18 10 SSE 1006,4 10
13.12.2017 22:00:00 - - - - - - -
13.12.2017 21:00:00 - - - - - - -
13.12.2017 20:00:00 1,4 -0,4 18 10 S 1007,6 10
13.12.2017 19:00:00 - - - - - - -
13.12.2017 18:00:00 - - - - - - -
13.12.2017 17:00:00 2,5 0,8 18 10 S 1007,1 10
13.12.2017 16:00:00 - - - - - - -
13.12.2017 15:00:00 - - - - - - -
13.12.2017 14:00:00 2,4 0,2 18 10 SSW 1006,5 10
13.12.2017 13:00:00 - - - - - - -
13.12.2017 12:00:00 - - - - - - -
13.12.2017 11:00:00 1,6 -0,7 11 6 SW 1006,4 20
13.12.2017 10:00:00 - - - - - - -
13.12.2017 09:00:00 - - - - - - -
13.12.2017 08:00:00 1,4 -0,4 14 8 WSW 1004,3 10
13.12.2017 07:00:00 - - - - - - -
13.12.2017 06:00:00 - - - - - - -
13.12.2017 05:00:00 2,6 1,2 18 10 W 1000,1 10
13.12.2017 04:00:00 - - - - - - -
13.12.2017 03:00:00 - - - - - - -
13.12.2017 02:00:00 4,2 1,3 25 14 S 994,5 10
13.12.2017 01:00:00 - - - - - - -
13.12.2017 00:00:00 - - - - - - -
12.12.2017 23:00:00 5,8 2,7 29 16 SSW 993,5 10
12.12.2017 22:00:00 - - - - - - -
12.12.2017 21:00:00 - - - - - - -
12.12.2017 20:00:00 7,2 4,3 25 14 S 992,2 10
12.12.2017 19:00:00 - - - - - - -
12.12.2017 18:00:00 - - - - - - -
12.12.2017 17:00:00 6,0 4,6 18 10 S 991,1 10
12.12.2017 16:00:00 - - - - - - -
12.12.2017 15:00:00 - - - - - - -
12.12.2017 14:00:00 4,2 3,1 18 10 SSE 990,3 10
12.12.2017 13:00:00 - - - - - - -
12.12.2017 12:00:00 - - - - - - -
12.12.2017 11:00:00 3,8 1,9 18 10 SE 991,6 10
12.12.2017 10:00:00 - - - - - - -
12.12.2017 09:00:00 - - - - - - -
12.12.2017 08:00:00 3,2 1,3 22 12 SE 993,2 10
12.12.2017 07:00:00 - - - - - - -
12.12.2017 06:00:00 - - - - - - -
12.12.2017 05:00:00 2,0 0,2 14 8 ESE 995,0 10
12.12.2017 04:00:00 - - - - - - -
12.12.2017 03:00:00 - - - - - - -
12.12.2017 02:00:00 1,6 -0,2 18 10 ESE 997,9 10
12.12.2017 01:00:00 - - - - - - -
12.12.2017 00:00:00 - - - - - - -
11.12.2017 23:00:00 1,4 -0,8 11 6 ESE 999,0 10
11.12.2017 22:00:00 - - - - - - -
11.12.2017 21:00:00 - - - - - - -
11.12.2017 20:00:00 0,8 -1,8 14 8 ESE 998,7 10
11.12.2017 19:00:00 - - - - - - -
11.12.2017 18:00:00 - - - - - - -
11.12.2017 17:00:00 0,2 -2,6 14 8 E 998,0 10
11.12.2017 16:00:00 - - - - - - -
11.12.2017 15:00:00 - - - - - - -
11.12.2017 14:00:00 -0,5 -2,3 14 8 E 996,8 4,0
11.12.2017 13:00:00 - - - - - - -
11.12.2017 12:00:00 - - - - - - -
11.12.2017 11:00:00 -0,4 -3,0 14 8 ESE 997,7 10
11.12.2017 10:00:00 - - - - - - -
11.12.2017 09:00:00 - - - - - - -
11.12.2017 08:00:00 -1,3 -3,1 14 8 E 997,3 10
11.12.2017 07:00:00 - - - - - - -
11.12.2017 06:00:00 - - - - - - -
11.12.2017 05:00:00 -1,7 -2,7 11 6 ESE 997,7 10
11.12.2017 04:00:00 - - - - - - -
11.12.2017 03:00:00 - - - - - - -
11.12.2017 02:00:00 -0,4 -1,8 14 8 ESE 998,2 10
11.12.2017 01:00:00 - - - - - - -
11.12.2017 00:00:00 - - - - - - -
10.12.2017 23:00:00 0,0 -1,7 11 6 SSE 999,1 10
10.12.2017 22:00:00 - - - - - - -
10.12.2017 21:00:00 - - - - - - -
10.12.2017 20:00:00 0,4 -2,2 11 6 SSE 998,8 10
10.12.2017 19:00:00 - - - - - - -
10.12.2017 18:00:00 - - - - - - -
10.12.2017 17:00:00 1,6 -0,6 11 6 SSE 999,0 10
10.12.2017 16:00:00 - - - - - - -
10.12.2017 15:00:00 - - - - - - -
10.12.2017 14:00:00 1,2 -0,9 11 6 SSE 998,7 10
10.12.2017 13:00:00 - - - - - - -
10.12.2017 12:00:00 - - - - - - -
10.12.2017 11:00:00 0,2 -2,6 14 8 SE 999,6 10
10.12.2017 10:00:00 - - - - - - -
10.12.2017 09:00:00 - - - - - - -
10.12.2017 08:00:00 0,1 -3,9 14 8 SE 999,6 10
10.12.2017 07:00:00 - - - - - - -
10.12.2017 06:00:00 - - - - - - -
10.12.2017 05:00:00 0,4 -3,1 11 6 SSE 1000,3 10
10.12.2017 04:00:00 - - - - - - -
10.12.2017 03:00:00 - - - - - - -
10.12.2017 02:00:00 0,7 -3,1 14 8 SSE 1000,9 10
10.12.2017 01:00:00 - - - - - - -
10.12.2017 00:00:00 - - - - - - -
09.12.2017 23:00:00 1,2 -3,5 14 8 SSE 1001,8 10
09.12.2017 22:00:00 - - - - - - -
09.12.2017 21:00:00 - - - - - - -
09.12.2017 20:00:00 1,3 -2,7 14 8 S 1002,2 10
09.12.2017 19:00:00 - - - - - - -
09.12.2017 18:00:00 - - - - - - -
09.12.2017 17:00:00 1,9 -0,9 18 10 SSE 1002,2 10
09.12.2017 16:00:00 - - - - - - -
09.12.2017 15:00:00 - - - - - - -
09.12.2017 14:00:00 2,3 -0,4 18 10 SSE 1001,6 10
09.12.2017 13:00:00 - - - - - - -
09.12.2017 12:00:00 - - - - - - -
09.12.2017 11:00:00 2,2 -0,5 18 10 S 1001,7 10
09.12.2017 10:00:00 - - - - - - -
09.12.2017 09:00:00 - - - - - - -
09.12.2017 08:00:00 2,6 0,1 18 10 SSE 1000,3 10
09.12.2017 07:00:00 - - - - - - -
09.12.2017 06:00:00 - - - - - - -
09.12.2017 05:00:00 3,1 0,9 18 10 SSE 999,2 10
09.12.2017 04:00:00 - - - - - - -
09.12.2017 03:00:00 - - - - - - -
09.12.2017 02:00:00 3,3 1,6 22 12 SSE 998,9 10
09.12.2017 01:00:00 - - - - - - -
09.12.2017 00:00:00 - - - - - - -
08.12.2017 23:00:00 3,2 1,8 14 8 SSE 998,5 10
08.12.2017 22:00:00 - - - - - - -
08.12.2017 21:00:00 - - - - - - -
08.12.2017 20:00:00 3,4 2,3 14 8 SSE 997,6 10

tt = temperature
td = dewpoint
ff = wind speed
dd = wind direction
ppp = reduced air pressure
vv = visibility

Next stations